TOMORROW-S4 (62386 NORAD) Tracking and Keplerian Element Data

This shows tracking and keplerian element data for the satellite.

Feedback or suggestion? Click here.




ElementValue
Catalog62386
NameTOMORROW-S4
Epoch Orbit680
Epoch Day34.27775407
Epoch Year2025
RAAN125.1282
Inclination44.9961
Eccentricity0.0003815
Argument of Perigee319.8399
Mean Anonmoly40.2198
Mean Motion15.18980778
Decay Rate0.00014395
L11 62386U 24247K 25034.27775407 .00014395 00000+0 68769-3 0 9997
L22 62386 44.9961 125.1282 0003815 319.8399 40.2198 15.18980778 6802



Live tracking and technical data element details for TOMORROW-S4 (NORAD 62386). TOMORROW-S4 can be tracked NOW for your location showing map with azimuth and elevation plus other details from your city location.







IsCatalogInMostPopularTable: catalog: 62386, numindb: 11
Update: records affected: 1



GetName: 62386 TOMORROW-S4

Hit Count: updated at: Mon, 19 May 2025 02:48:55 GMT